Tracking 21612 objects as of 19-Oct-2020
HD Live streaming from Space Station
objects crossing your sky now

SL-12 DEB

Track SL-12 DEB now!
10-day predictions


NORAD ID: 41701
Int'l Code: 2010-007T
Perigee: 911.3 km
Apogee: 19,138.1 km
Inclination: 65.1 °
Period: 348.2 minutes
Semi major axis: 16395 km
RCS: Unknown
Launch date: March 1, 2010
Source: Commonwealth of Independent States (former USSR) (CIS)
Launch site: TYURATAM MISSILE AND SPACE COMPLEX (TTMTR)

Note: This is SATELLITE DEBRIS
aabbcc
Your satellite tracking list
Your tracking list is empty




NASA's NSSDC Master Catalog

Two Line Element Set (TLE):
1 41701U 10007T   20293.10102300  .00000374  00000-0  97055-2 0  9996
2 41701  65.1012 299.7661 5558402  12.2624 357.1132  4.13531344 93615
Source of the keplerian elements: AFSPC